This demonstration page uses our WeatherBlox Daily Observations layout. Learn more.

Left ArrowRight Arrow

41.12389, -100.76542

Hourly Observations for September 23, 2016

Temp ( °F °C ) Dew Point ( °F °C ) Humidity (%) Winds ( mph kmh ) Pressure ( in mb ) Visibility ( mi km ) Precip ( " mm )
12:53 am 00:53 Cloudy 65 18.3 62 16.7 90 90 E 10 17 29.85 1011 8 13 0.00 0.00
1:53 am 01:53 Cloudy 65 18.3 62 16.7 90 90 E 13 20 29.82 1010 7 11 0.00 0.00
2:01 am 02:01 Cloudy with Mist and Fog 65 18.3 62 16.7 90 90 ESE 12 19 29.77 1008 6 10 0.00 0.00
2:53 am 02:53 Cloudy with Mist and Fog 64 17.8 62 16.7 93 93 ESE 10 17 29.81 1010 5 8 0.00 0.00
3:53 am 03:53 Cloudy with Mist and Fog 64 17.8 61 16.1 90 90 E 10 17 29.79 1009 5 8 0.00 0.00
4:53 am 04:53 Mostly Cloudy with Mist and Fog 63 17.2 61 16.1 93 93 ESE 9 15 29.79 1009 5 8 0.00 0.00
5:14 am 05:14 Partly Cloudy with Mist and Fog 63 17 61 16 94 94 ESE 8 13 29.77 1008 5 8 0.00 0.00
5:32 am 05:32 Mostly Cloudy with Mist and Fog 63 17 61 16 94 94 ESE 10 17 29.77 1008 4 6 0.00 0.00
5:41 am 05:41 Partly Cloudy with Mist and Fog 63 17 61 16 94 94 E 9 15 29.77 1008 4 6 0.00 0.00
5:53 am 05:53 Partly Cloudy with Mist and Fog 62 16.7 60 15.6 93 93 E 8 13 29.79 1009 4 6 0.00 0.00
6:53 am 06:53 Clear with Mist and Fog 61 16.1 59 15 93 93 ESE 10 17 29.79 1009 5 8 0.00 0.00
7:53 am 07:53 Sunny 61 16.1 59 15 93 93 E 12 19 29.81 1010 7 11 0.00 0.00
8:53 am 08:53 Sunny 68 20 60 15.6 76 76 SE 12 19 29.79 1009 10 16 0.00 0.00
9:53 am 09:53 Sunny 75 23.9 60 15.6 60 60 SE 10 17 29.78 1009 10 16 0.00 0.00
10:53 am 10:53 Sunny 81 27.2 59 15 47 47 S 17 28 29.78 1008 10 16 0.00 0.00
11:53 am 11:53 Sunny 87 30.6 58 14.4 37 37 S 17 28 29.75 1008 10 16 0.00 0.00
12:53 pm 12:53 Sunny 90 32.2 57 13.9 33 33 S 23 37 29.73 1007 10 16 0.00 0.00
1:53 pm 13:53 Sunny 93 33.9 55 12.8 28 28 S 26 43 29.70 1006 10 16 0.00 0.00
2:53 pm 14:53 Sunny 92 33.3 55 12.8 29 29 SSE 24 39 29.68 1005 10 16 0.00 0.00
3:53 pm 15:53 Sunny 92 33.3 55 12.8 29 29 S 23 37 29.67 1005 10 16 0.00 0.00
4:53 pm 16:53 Sunny 91 32.8 54 12.2 28 28 SSE 25 41 29.66 1004 10 16 0.00 0.00
5:53 pm 17:53 Sunny 89 31.7 54 12.2 30 30 SSE 23 37 29.67 1005 10 16 0.00 0.00
6:53 pm 18:53 Sunny 85 29.4 55 12.8 36 36 SSE 24 39 29.69 1006 10 16 0.00 0.00
7:53 pm 19:53 Clear 82 27.8 54 12.2 38 38 SE 17 28 29.70 1006 10 16 0.00 0.00
8:53 pm 20:53 Clear 81 27.2 54 12.2 39 39 SSE 17 28 29.70 1006 10 16 0.00 0.00
9:53 pm 21:53 Clear 79 26.1 55 12.8 44 44 SSE 17 28 29.70 1006 10 16 0.00 0.00
10:53 pm 22:53 Clear 77 25 56 13.3 48 48 SSE 16 26 29.70 1006 10 16 0.00 0.00
11:53 pm 23:53 Clear 76 24.4 56 13.3 50 50 SSE 18 30 29.70 1006 10 16 0.00 0.00

Powered by AerisWeather